Location: *
(45.1961°N, 1.9694°E)
Time: 06:42:15
(UTC+00:00)

Abrixas rocket - Pass Details

Date: 25 August 2019
Orbit: 364 x 371 km, 48.4° (Epoch: 13 September)

Event Time Altitude Azimuth Distance (km) Brightness Sun altitude
Rises 21:03:00 0° 289° (WNW) 2,224 7.0 -22.2°
Reaches altitude 10° 21:05:04 10° 293° (WNW) 1,374 5.8 -22.4°
Enters shadow 21:07:12 38° 311° (NW) 583 3.4 -22.7°
